Regional Weather Roundup
Issued by NWS

Home | Current Version | Previous Version | Text Only | Print | Product List | Glossary Off
Versions: 1 2 3 4 5 6 7 8 9 10 11 12 13 14 15 16 17 18 19 20 21 22 23 24 25 26 27 28 29 30 31 32 33 34 35 36 37 38 39 40 41 42 43 44 45 46 47 48 49 50

127
ASUS45 KCYS 110410
RWRWY

WYOMING REGIONAL WEATHER ROUNDUP
NATIONAL WEATHER SERVICE CHEYENNE WY
900 PM MST WED FEB 10 2016

NOTE:  "FAIR" INDICATES FEW OR NO CLOUDS BELOW 12,000 FEET
WITH NO SIGNIFICANT WEATHER AND/OR OBSTRUCTIONS TO VISIBILITY.

WYZ001-110500-
YELLOWSTONE NATIONAL PARK

CITY           SKY/WX    TMP DP  RH WIND       PRES   REMARKS
LK YELLOWSTONE   N/A     24  18  77 CALM      30.36R
W YELLOWSTONE  NOT AVBL

$$
WYZ002>013-054>058-071-098>099-110500-
NORTHERN WYOMING

CITY           SKY/WX    TMP DP  RH WIND       PRES   REMARKS
JACKSON        FAIR      12  10  92 N8        30.36R WCI   1
CODY           FAIR      52  18  25 W13G18    30.15S
GREYBULL       FAIR      34  25  69 SE5       30.14S WCI  30
WORLAND        FAIR      28  26  92 CALM      30.14F
SHERIDAN       FAIR      34  24  67 CALM      30.09F
BUFFALO        FAIR      42  23  46 SW6       30.12F
GILLETTE       FAIR      30  25  81 SW5       30.11S WCI  25
HULETT         FAIR      36  27  69 CALM      30.10S
NEWCASTLE      FAIR      34  21  60 W5        30.10S WCI  30

$$
WYZ014>020-022>026-101>103-110500-
CENTRAL WYOMING

CITY           SKY/WX    TMP DP  RH WIND       PRES   REMARKS
BIG PINEY      FAIR      26  18  71 CALM      30.33F
PINEDALE         N/A     28  19  69 N3        30.33S
DUBOIS         FAIR      34  16  47 NW15G28   30.25F WCI  24
LANDER         FAIR      41  17  38 CALM      30.17F
RIVERTON       FAIR      28  18  66 E3        30.20S
CASPER         FAIR      38  21  50 SW16      30.18R WCI  29
DOUGLAS        FAIR      34  24  67 NW6         N/A  WCI  29

$$
WYZ021-027>030-104>119-110500-
SOUTHERN WYOMING

CITY           SKY/WX    TMP DP  RH WIND       PRES   REMARKS
EVANSTON       FAIR      30  14  51 W14       30.39F WCI  19
KEMMERER       FAIR      30  18  59 SW6       30.36  WCI  24
FORT BRIDGER   CLEAR     37  16  41 SW20      30.39F WCI  27
ROCK SPRINGS   FAIR      36  19  50 W20       30.32F WCI  25
DIXON          FAIR      16   9  73 CALM      30.38S
RAWLINS        FAIR      32  17  54 W17       30.28R WCI  21
SARATOGA       FAIR      27  16  63 SE8       30.31S WCI  18
LARAMIE        FAIR      25  18  74 E7        30.23S WCI  17
CHEYENNE       FAIR      37  17  44 NW5       30.18S WCI  33
TORRINGTON     FAIR      36  23  59 W6        30.13S WCI  31
PINE BLUFFS    FAIR      34  23  64 W12       30.18R WCI  25

$$




USA.gov is the U.S. government's official web portal to all federal, state and local government web resources and services.